Location: Baix
(44.7118°N, 4.7648°E)
Time: 07:31:26
(UTC+00:00)

Vanguard 1 - Pass Details

Date: 29 November 2020
Orbit: 648 x 3834 km, 34.3° (Epoch: 21 January)

Event Time Altitude Azimuth Distance (km) Brightness Sun altitude
Rises 10:55:34 0° 271° (W) 5,341 13.7 23.2°
Reaches altitude 10° 10:59:30 10° 258° (WSW) 4,790 13.7 23.3°
Maximum altitude 11:10:09 25° 211° (SSW) 4,668 14.6 23.5°
Drops below altitude 10° 11:24:57 10° 166° (SSE) 6,712 16.1 23.7°
Sets 11:32:14 0° 156° (SSE) 7,933 15.8 23.7°
